ZHONGXING-2D

Last updated on Wed Mar 11 2026 00:02:55 GMT+0000 (Coordinated Universal Time)

1 43920U 19001A 26069.52949021 -.00000336 00000+0 00000+0 0 9995 2 43920 0.0415 299.5972 0000676 24.3650 164.8429 1.00269575 53098
UTC large
Height (km)
Speed (km/s)
/
Latitude / Longitude
Inclination (degrees)
Orbital Period (minutes)
Azimuth
Elevation
Range (km)
Doppler Factor

Next 0 passes for location: London (51.5072 / 0.1276)

Sorry there are no passes over London.